NV6B Weather Reports


Display with metric or nautical units.
time (UTC)temp
F
wind
direction
speed
MPH
gust
MPH
rain 1hr
in
rain 24hr
in
rain mn
in
humidity
%
barometer
mb
20260508155636 66 312 4.0 7.0 0.00 0.00 0.00 48 1011.8
20260508154636 65 322 2.0 3.0 0.00 0.00 0.00 47 1011.9
20260508153636 64 16 4.0 4.0 0.00 0.00 0.00 47 1011.8
20260508152635 63 310 4.0 4.0 0.00 0.00 0.00 50 1011.8
20260508151635 62 351 2.0 2.0 0.00 0.00 0.00 52 1011.6
20260508150635 61 280 1.0 3.0 0.00 0.00 0.00 55 1011.7
20260508145635 61 279 0.0 3.0 0.00 0.00 0.00 55 1011.6
20260508144636 61 279 1.0 2.0 0.00 0.00 0.00 56 1011.7
20260508084652 58 278 0.0 0.0 0.00 0.00 0.00 64 1009.0
20260508083631 57 278 0.0 3.0 0.00 0.00 0.00 64 1009.0
20260508082631 56 277 1.0 4.0 0.00 0.00 0.00 65 1009.0
20260508081631 56 334 0.0 0.0 0.00 0.00 0.00 67 1008.9
20260508080631 56 334 0.0 0.0 0.00 0.00 0.00 66 1008.7
20260508075631 56 334 0.0 0.0 0.00 0.00 0.00 65 1008.7
20260508074631 57 334 0.0 0.0 0.00 0.00 0.00 63 1008.6
20260508073631 58 334 0.0 0.0 0.00 0.00 0.00 62 1008.6
20260508044629 63 334 0.0 0.0 0.00 0.00 0.00 50 1008.0
20260508043629 63 334 0.0 0.0 0.00 0.00 0.00 49 1008.0
20260508042629 64 334 0.0 0.0 0.00 0.00 0.00 49 1007.9
20260508041629 65 334 0.0 0.0 0.00 0.00 0.00 47 1007.9
20260508040629 66 334 0.0 0.0 0.00 0.00 0.00 45 1007.9
20260508035629 67 334 0.0 0.0 0.00 0.00 0.00 45 1007.9
20260508034629 68 334 0.0 0.0 0.00 0.00 0.00 43 1007.7
20260508033629 68 334 0.0 0.0 0.00 0.00 0.00 43 1007.6
20260508032628 69 334 0.0 0.0 0.00 0.00 0.00 41 1007.4
20260508031628 70 334 0.0 0.0 0.00 0.00 0.00 40 1007.3
20260508030628 71 334 0.0 0.0 0.00 0.00 0.00 38 1007.1
20260508025628 72 334 0.0 2.0 0.00 0.00 0.00 37 1007.1
20260508024628 73 334 0.0 0.0 0.00 0.00 0.00 36 1006.9
20260508023628 73 334 0.0 0.0 0.00 0.00 0.00 35 1006.8
20260508022628 74 334 0.0 3.0 0.00 0.00 0.00 35 1006.8
20260508021628 74 334 2.0 3.0 0.00 0.00 0.00 36 1006.8
20260508020648 75 358 2.0 5.0 0.00 0.00 0.00 35 1006.8
20260508015628 76 10 4.0 8.0 0.00 0.00 0.00 35 1006.7
20260508014648 76 16 3.0 6.0 0.00 0.00 0.00 35 1006.7
20260508013627 76 4 3.0 7.0 0.00 0.00 0.00 36 1006.8
20260508012648 77 18 3.0 10.0 0.00 0.00 0.00 34 1006.8
20260508011627 77 22 4.0 8.0 0.00 0.00 0.00 34 1006.7
20260508010627 77 358 4.0 10.0 0.00 0.00 0.00 35 1006.6
20260508005627 78 47 1.0 10.0 0.00 0.00 0.00 35 1006.7
20260508004627 78 8 5.0 5.0 0.00 0.00 0.00 34 1006.7
20260508003627 78 353 3.0 10.0 0.00 0.00 0.00 34 1006.7
20260508002647 79 6 4.0 9.0 0.00 0.00 0.00 35 1006.8
20260508001627 79 27 4.0 4.0 0.00 0.00 0.00 34 1006.7
20260508000627 80 15 3.0 12.0 0.00 0.00 0.00 34 1006.7
20260507235627 80 353 6.0 11.0 0.00 0.00 0.00 33 1006.7
20260507234647 80 19 1.0 5.0 0.00 0.00 0.00 33 1006.8
20260507233627 80 314 3.0 6.0 0.00 0.00 0.00 34 1006.8
20260507232626 80 353 3.0 10.0 0.00 0.00 0.00 34 1007.0
20260507231626 80 353 2.0 3.0 0.00 0.00 0.00 34 1007.1
20260507230626 80 324 3.0 11.0 0.00 0.00 0.00 33 1007.2
20260507225626 81 320 7.0 8.0 0.00 0.00 0.00 34 1007.3
20260507224626 82 2 3.0 5.0 0.00 0.00 0.00 34 1007.3
20260507223626 81 357 3.0 9.0 0.00 0.00 0.00 34 1007.4
20260507222626 82 2 3.0 10.0 0.00 0.00 0.00 32 1007.5
20260507221626 81 33 3.0 7.0 0.00 0.00 0.00 33 1007.7
20260507220626 80 307 4.0 7.0 0.00 0.00 0.00 34 1007.8
20260507215625 81 310 12.0 14.0 0.00 0.00 0.00 35 1007.9
20260507214626 80 339 2.0 3.0 0.00 0.00 0.00 33 1008.1
20260507213625 80 294 4.0 12.0 0.00 0.00 0.00 33 1008.2
20260507212625 82 339 3.0 10.0 0.00 0.00 0.00 33 1008.2
20260507211625 80 329 10.0 10.0 0.00 0.00 0.00 33 1008.4
20260507210625 80 6 3.0 9.0 0.00 0.00 0.00 35 1008.5
20260507205625 79 297 1.0 9.0 0.00 0.00 0.00 34 1008.6
20260507204645 80 302 3.0 3.0 0.00 0.00 0.00 34 1008.6
20260507203625 79 4 7.0 8.0 0.00 0.00 0.00 37 1008.7
20260507202625 79 312 7.0 8.0 0.00 0.00 0.00 36 1008.8
20260507201624 78 307 4.0 8.0 0.00 0.00 0.00 36 1009.0
20260507200624 78 343 3.0 10.0 0.00 0.00 0.00 36 1009.1
20260507195624 77 292 0.0 7.0 0.00 0.00 0.00 38 1009.0
20260507194624 76 26 1.0 3.0 0.00 0.00 0.00 37 1009.2
20260507193624 78 334 2.0 8.0 0.00 0.00 0.00 39 1009.3
20260507192624 78 14 0.0 10.0 0.00 0.00 0.00 37 1009.5
20260507191624 76 33 1.0 3.0 0.00 0.00 0.00 38 1009.5
20260507190624 76 318 3.0 5.0 0.00 0.00 0.00 37 1009.6
20260507185624 75 334 2.0 8.0 0.00 0.00 0.00 38 1009.7
20260507184644 77 358 1.0 7.0 0.00 0.00 0.00 38 1009.7
20260507183624 76 35 3.0 7.0 0.00 0.00 0.00 37 1009.9
20260507182623 76 297 0.0 5.0 0.00 0.00 0.00 39 1010.2
20260507181623 76 277 1.0 5.0 0.00 0.00 0.00 37 1010.3
20260507180623 75 305 2.0 5.0 0.00 0.00 0.00 38 1010.3
20260507175623 75 306 0.0 10.0 0.00 0.00 0.00 38 1010.4
20260507174623 74 297 3.0 5.0 0.00 0.00 0.00 40 1010.5
20260507173623 75 293 2.0 5.0 0.00 0.00 0.00 40 1010.5